Other Public Products
Issued by NWS Charleston, SC

Current Version | Previous Version | Graphics & Text | Print | Product List | Glossary On
Versions: 1 2 3 4 5 6 7 8 9 10 11 12 13 14 15 16 17 18 19 20 21 22 23 24 25 26 27 28 29 30 31 32 33 34 35 36 37 38 39 40 41 42 43 44 45 46 47 48 49 50
513
FPUS82 KCHS 282027
OPUCHS

TEST...KCHS/KSAV Gateway Observations...TEST
National Weather Service Charleston SC
400 PM EDT SUN MAY 28 2017

NOTE: "fair" indicates few or no clouds below 12,000 feet with no
significant weather and/or obstructions to visibility.

SCZ050-WAZ558-NCZ071-TXZ119-213-PAZ071-DCZ001-FLZ074-172-MI076-
NYZ176-178-MAZ016-IL014-TNZ027-NJZ106-GAZ044-MD014-282100-

...Gateway Observations for Charleston International...

CITY           SKY/WX    TMP DP  RH WIND       PRES   REMARKS
Chas Airport   PTSUNNY   89  69  51 W16       29.88F HX  93
Seattle        MOSUNNY   77  51  40 NW8       30.09F
Charlotte      PTSUNNY   84  65  52 W7        29.85S
Dallas DFW     CLOUDY    75  71  87 N7        29.98F
Dallas Love    CLOUDY    75  71  87 NE5       29.95F
Philladelphia  CLOUDY    74  58  57 SE9       29.87F
Wash National  CLOUDY    68  65  90 E10       29.85F
Baltimore      LGT RAIN  67  66  97 CALM      29.85F
Miami          MOSUNNY   97  63  32 VRB3      29.99F HX  98
Detroit        CLOUDY    76  64  66 S9        29.69F
Newark         PTSUNNY   69  54  58 E12G17    29.92F
Laguardia      CLOUDY    70  53  54 S9        29.92F
J F K          CLOUDY    67  57  70 SE13      29.95S
Boston Logan   CLOUDY    58  54  86 NE6       29.98F
Ft. Lauderdale MOSUNNY   94  63  35 VRB3      29.99F HX  95
Chicago O`Hare PTSUNNY   75  56  51 NW12      29.72F
Chicago Midway PTSUNNY   69  62  78 E8        29.73S
Houston Bush   CLOUDY    90  75  61 SE15G25   29.92S HX 100
Houston Hobby  PTSUNNY   87  75  67 SE15G25   29.91F HX  96
Nashville      CLOUDY    79  61  53 W10       29.90S
Atlanta        PTSUNNY   84  67  56 SW13G22   29.89F

$$

GAZ044-118-TXZ119-213-NCZ071-DCZ001-MDZ014-506-PAZ021-071-NJZ106-
NYZ176-178-MAZ106-OHZ011-021-055-MIZ076-KYZ091-ILZ014-INZ047-
MNZ060-ONZ431-282100-

...Gateway Observations for Savannah International...

CITY           SKY/WX    TMP DP  RH WIND       PRES   REMARKS
Savannah Arpt  CLOUDY    95  69  42 W17G24    29.91F HX 100
Atlanta        PTSUNNY   84  67  56 SW13G22   29.89F
Charlotte      PTSUNNY   84  65  52 W7        29.85S
Dallas DFW     CLOUDY    75  71  87 N7        29.98F
Houston Bush   CLOUDY    90  75  61 SE15G25   29.92S HX 100
Wash National  CLOUDY    68  65  90 E10       29.85F
Wash Dulles    CLOUDY    66  63  90 E6        29.86S
Baltimore      LGT RAIN  67  66  97 CALM      29.85F
Philadelphia   CLOUDY    74  58  57 SE9       29.87F
Newark         PTSUNNY   69  54  58 E12G17    29.92F
Laguardia      CLOUDY    70  53  54 S9        29.92F
J F K          CLOUDY    67  57  70 SE13      29.95S
Boston         CLOUDY    58  54  86 NE6       29.98F
Pittsburg      PTSUNNY   75  65  70 SW7       29.76F
Akron          PTSUNNY   78  65  63 SW10      29.73F
Cleveland      CLOUDY    79  67  66 SW9       29.72F
Cincinnati     CLOUDY    73  63  70 W9        29.80S
Columbus       CLOUDY    78  64  61 W14G24    29.75S
Detroit        CLOUDY    76  64  66 S9        29.69F
Chicago O`Hare PTSUNNY   75  56  51 NW12      29.72F
Minneapolis    CLOUDY    71  45  39 NW21      29.72F
Indianapolis   PTSUNNY   77  63  61 SW13      29.74F
Toronto Canada PTSUNNY   70  55  60 E10G17    29.76F

$$




USA.gov is the U.S. government's official web portal to all federal, state and local government web resources and services.